[[{"header":{"parameterUnit":"m.s-1","parameterCategory":1,"la1":30.2991,"la2":30.254,"lo1":-89.0895,"lo2":-89.0444,"dy":0.0017,"dx":0.0017,"nx":28,"ny":28,"refTime":"2024-08-10T09:00:00:Z","depth":0,"parameterNumber":2,"parameterNumberName":"U-component_of_WINDS"},"data":[0,0,0,0,0,0,0,0,0,0,0,0,0,0,0,0,0,0,0,0,0,0,0,0,0,0,0,0,0,0,0,0,0,0,0,0,0,0,0,0,0,0,0,0,0,0,0,0,0,0,0,0,0,0,0,0,0,0,3.8091,3.8092,0,3.8214,3.8215,3.8216,3.8172,3.817,3.8167,3.8164,3.829,3.8296,3.8302,0,0,0,0,0,0,0,0,0,0,0,0,0,3.7816,3.7822,3.8091,3.8092,3.8094,3.8213,3.8215,3.8217,3.8173,3.817,3.8166,3.8163,3.8288,3.8295,3.8302,0,0,0,0,0,0,0,0,0,0,0,0,0,3.7937,3.7823,3.809,3.8086,3.8087,3.8213,3.8215,3.8217,3.8174,3.817,3.8165,3.8162,3.8286,3.8295,3.8303,3.8441,0,0,3.8331,3.8334,0,0,0,0,0,0,0,0,3.793,3.7947,3.8085,3.8087,3.8088,3.8173,3.8165,3.8292,3.8175,3.8141,3.8164,3.816,3.8255,3.8266,3.8298,3.8447,3.8452,3.8331,3.8337,3.8341,3.8343,0,0,0,0,0,0,0,3.7922,3.7942,3.8139,3.8087,3.8089,3.8078,3.809,3.8189,3.8219,3.8143,3.8141,3.8156,3.8255,3.829,3.8301,3.8454,3.8331,3.8339,3.8344,3.8348,3.8719,3.8723,0,0,0,0,0,0,3.7913,3.7935,3.8135,3.8143,3.7997,3.8086,3.81,3.815,3.8218,3.8225,3.8159,3.8153,3.8277,3.829,3.8305,3.8468,3.834,3.8349,3.8354,3.8714,3.872,3.8725,0,0,0,0,0,0,3.7907,3.7931,3.813,3.8038,3.8063,3.8095,3.8152,3.8155,3.819,3.823,3.8235,3.8189,3.8274,3.8293,3.8407,3.8472,3.8353,3.8361,3.8709,3.8716,3.8722,3.8797,0,0,0,0,0,0,3.79,3.793,3.7983,3.804,3.8068,3.8231,3.8156,3.816,3.8205,3.8199,3.826,3.8266,3.8272,3.8394,3.8416,3.8482,3.8368,3.8703,3.8712,3.872,3.8789,3.8806,3.882,0,0,0,0,0,3.789,3.7999,3.7985,3.801,3.8135,3.8235,3.8251,3.8255,3.8211,3.8264,3.8289,3.8264,3.8462,3.8406,3.843,3.85,3.8699,3.871,3.8719,3.8782,3.8803,3.882,0,0,0,0,0,0,3.7949,3.8007,3.7992,3.8123,3.8174,3.8227,3.8294,3.8277,3.8342,3.8333,3.8337,3.8351,3.8468,3.8496,3.8432,3.8636,3.8574,3.8589,3.8613,3.8633,3.8648,3.8638,3.8375,0,0,0,0,0,3.7978,3.8054,3.81,3.8212,3.8238,3.8262,3.8306,3.8305,3.8358,3.8379,3.8413,3.8466,3.8539,3.8588,3.8658,3.8793,3.8805,3.8853,3.8869,3.8881,3.8894,3.8966,3.8987,3.8758,3.8758,3.8758,0,0,3.8037,3.8078,3.8126,3.8225,3.8264,3.8342,3.828,3.8367,3.8424,3.8392,3.8502,3.8529,3.8587,3.8712,3.8769,3.8739,3.896,3.8894,3.8904,3.891,3.8978,3.9,3.9019,3.8765,3.8764,3.8763,0,0,3.8185,3.8225,3.832,3.8361,3.8421,3.8436,3.8459,3.8514,3.8531,3.8641,3.8617,3.8686,3.8814,3.8856,3.8894,3.9056,3.9034,3.9079,3.9159,3.9229,3.9247,3.9263,3.9319,3.9339,3.9092,3.9092,3.9092,0,3.8251,3.8369,3.8372,3.8459,3.8502,3.8477,3.8573,3.8612,3.8693,3.8723,3.8688,3.8846,3.8884,3.9017,3.9056,3.9089,3.9114,3.9071,3.9244,3.926,3.9275,3.9328,3.9349,3.9097,3.9096,3.9096,3.9095,0,3.8446,3.8528,3.8598,3.8675,3.8726,3.8818,3.8834,3.8886,3.888,3.8898,3.9009,3.9054,3.9131,3.9163,3.9159,3.9296,3.9275,3.9243,3.918,3.9302,3.9351,3.9372,3.9104,3.9102,3.9101,3.9099,0,0,3.8635,3.8712,3.8737,3.8771,3.8835,3.8898,3.8988,3.9063,3.9106,3.9163,3.9237,3.9345,3.9314,3.9358,3.9358,3.9419,3.9542,3.9379,3.938,3.9406,3.9693,3.9715,3.9739,3.9529,3.9533,3.9536,3.9687,0,3.8786,3.8944,3.8949,3.9092,3.9167,3.9143,3.9221,3.9268,3.9287,3.9353,3.9374,3.9449,3.9405,3.943,3.949,3.9515,3.9599,3.9504,3.9597,3.96,3.9581,3.9765,3.979,3.9931,3.9707,3.971,3.9713,0,3.8985,3.9046,3.9197,3.9248,3.9279,3.9349,3.9418,3.9481,3.9534,3.9543,3.9591,3.9582,3.9672,3.9608,3.9732,3.9666,3.9705,3.9722,3.9728,3.9735,3.9662,3.9776,3.9976,3.9996,3.9744,3.9741,3.9739,0,3.9105,3.9225,3.933,3.936,3.9423,3.9473,3.9501,3.955,3.9594,3.9654,3.9682,3.9753,3.9791,3.9845,3.9854,3.9807,3.9978,3.9915,3.9987,3.9987,4.0023,4.0021,4.023,4.0051,4.0051,4.005,4.005,0,3.9273,3.9365,3.9385,3.9449,3.9552,3.9556,3.9658,3.9682,3.9725,3.9794,3.9778,3.9842,3.9851,3.9918,3.9926,4.0026,4.0044,4.0053,4.0054,4.0054,4.0053,4.0078,4.0068,4.0056,4.0055,4.0054,4.0053,0,3.9424,3.9441,3.9554,3.9604,3.9618,3.9691,3.9734,3.9795,3.9812,3.9899,3.9919,3.9946,4.0023,4.0038,4.013,4.0135,4.0254,4.0246,4.0236,4.0234,4.0305,4.0298,4.0537,4.0568,4.037,4.0372,4.0374,0,3.9529,3.96,3.9657,3.9701,3.9732,3.9804,3.9848,3.9855,3.9902,3.9966,4.002,4.0095,4.0155,4.0279,4.0307,4.0376,4.0369,4.0448,4.0379,4.0376,4.0367,4.0362,4.0368,4.046,4.0463,4.0464,4.0466,0,3.9714,3.9718,3.9783,3.9851,3.9905,3.9959,4.001,4.0047,4.006,4.0114,4.0192,4.0239,4.0332,4.0406,4.0475,4.0503,4.0487,4.0487,4.0507,4.0507,4.0497,4.0501,4.027,4.0481,4.048,4.0479,4.0478,4.0477,3.9844,3.9905,3.9954,4.0026,4.0065,4.0113,4.0172,4.0196,4.0261,4.0337,4.0337,4.0422,4.0471,4.0561,4.0594,4.066,4.0635,4.0665,4.0672,4.0679,4.0684,4.0488,4.0673,4.0673,4.0672,4.0672,4.0672,0,4.0026,4.0056,4.0122,4.0194,4.025,4.0229,4.0284,4.0333,4.0408,4.0455,4.0514,4.0603,4.0675,4.0707,4.0778,4.0824,4.0818,4.0842,4.0838,4.0844,4.0704,4.0679,4.0846,4.0846,4.0846,4.0846,4.0846,4.0846,4.0127,4.0228,4.0238,4.0357,4.0386,4.0469,4.0502,4.0545,4.0582,4.0682,4.0741,4.0762,4.0803,4.0875,4.094,4.0947,4.0973,4.1001,4.1004,4.0872,4.0855,4.0838,4.0814,4.1007,4.1007,4.1139,4.114,4.1141]},{"header":{"parameterUnit":"m.s-1","parameterCategory":1,"la1":30.2991,"la2":30.254,"lo1":-89.0895,"lo2":-89.0444,"dy":0.0017,"dx":0.0017,"nx":28,"ny":28,"refTime":"2024-08-10T09:00:00:Z","depth":0,"parameterNumber":3,"parameterNumberName":"V-component_of_WINDS"},"data":[0,0,0,0,0,0,0,0,0,0,0,0,0,0,0,0,0,0,0,0,0,0,0,0,0,0,0,0,0,0,0,0,0,0,0,0,0,0,0,0,0,0,0,0,0,0,0,0,0,0,0,0,0,0,0,0,0,0,0.3849,0.3849,0,0.3872,0.3872,0.3872,0.3871,0.3871,0.387,0.387,0.3893,0.3894,0.3895,0,0,0,0,0,0,0,0,0,0,0,0,0,0.3803,0.3804,0.3849,0.3849,0.3849,0.3872,0.3872,0.3872,0.3871,0.387,0.387,0.387,0.3893,0.3894,0.3895,0,0,0,0,0,0,0,0,0,0,0,0,0,0.3824,0.3804,0.3849,0.3851,0.3852,0.3872,0.3872,0.3872,0.3871,0.387,0.387,0.387,0.3892,0.3894,0.3895,0.3914,0,0,0.3899,0.39,0,0,0,0,0,0,0,0,0.3823,0.3826,0.3851,0.3851,0.3852,0.3868,0.3864,0.3886,0.3871,0.3864,0.387,0.3869,0.3885,0.3887,0.3892,0.3915,0.3916,0.3899,0.39,0.3901,0.3901,0,0,0,0,0,0,0,0.3822,0.3825,0.3858,0.3851,0.3852,0.3851,0.3854,0.3868,0.3877,0.3864,0.3864,0.3867,0.3885,0.3891,0.3893,0.3916,0.3899,0.3901,0.3902,0.3902,0.3954,0.3954,0,0,0,0,0,0,0.382,0.3824,0.3857,0.3858,0.3836,0.3852,0.3855,0.3863,0.3877,0.3878,0.3867,0.3867,0.3889,0.3891,0.3894,0.3916,0.3901,0.3902,0.3903,0.3953,0.3954,0.3955,0,0,0,0,0,0,0.3819,0.3823,0.3856,0.3841,0.3845,0.3854,0.3863,0.3864,0.387,0.3879,0.388,0.3872,0.3889,0.3892,0.3909,0.3917,0.3903,0.3904,0.3953,0.3954,0.3954,0.3961,0,0,0,0,0,0,0.3817,0.3822,0.383,0.3841,0.3846,0.3871,0.3863,0.3865,0.3872,0.3872,0.3884,0.3885,0.3888,0.3906,0.391,0.3918,0.3905,0.3952,0.3953,0.3954,0.396,0.3962,0.3963,0,0,0,0,0,0.3816,0.3831,0.383,0.3834,0.3856,0.3871,0.3874,0.3878,0.3873,0.388,0.3886,0.3885,0.3915,0.3908,0.3912,0.3921,0.3952,0.3953,0.3954,0.3959,0.3961,0.3963,0,0,0,0,0,0,0.382,0.3832,0.3832,0.3851,0.386,0.3871,0.3881,0.388,0.3891,0.389,0.3894,0.3897,0.3913,0.3919,0.3911,0.3939,0.3933,0.3935,0.3935,0.3938,0.3939,0.3938,0.3906,0,0,0,0,0,0.3823,0.3835,0.3845,0.3861,0.3866,0.3872,0.3879,0.3881,0.3891,0.3895,0.3902,0.3911,0.3923,0.393,0.3942,0.3961,0.3963,0.3969,0.397,0.3972,0.3974,0.3984,0.3986,0.3959,0.3959,0.3959,0,0,0.383,0.3838,0.3845,0.3862,0.3869,0.3881,0.3876,0.3889,0.3898,0.3897,0.3913,0.3918,0.3929,0.3947,0.3955,0.3952,0.3982,0.3973,0.3974,0.3975,0.3985,0.3988,0.399,0.3959,0.3959,0.3959,0,0,0.3848,0.3856,0.3869,0.3877,0.3888,0.3892,0.3895,0.3906,0.391,0.3926,0.3926,0.3936,0.3956,0.3964,0.397,0.399,0.3989,0.3994,0.4003,0.4013,0.4015,0.4017,0.4024,0.4026,0.3995,0.3995,0.3995,0,0.3855,0.3873,0.3877,0.389,0.3897,0.3896,0.391,0.3917,0.3931,0.3936,0.3933,0.3957,0.3964,0.3984,0.3989,0.3994,0.3998,0.3993,0.4014,0.4016,0.4018,0.4025,0.4027,0.3996,0.3996,0.3996,0.3996,0,0.3881,0.3894,0.3904,0.3917,0.3926,0.3939,0.3944,0.3952,0.3953,0.3957,0.3974,0.3982,0.3995,0.3999,0.4,0.4019,0.4016,0.4013,0.4007,0.4021,0.4027,0.403,0.3997,0.3996,0.3996,0.3996,0,0,0.3904,0.3918,0.3922,0.3928,0.394,0.3949,0.3962,0.3975,0.3981,0.3991,0.4002,0.4018,0.4016,0.4023,0.4025,0.4033,0.4048,0.4029,0.4029,0.4032,0.4068,0.4071,0.4074,0.4047,0.4048,0.4048,0.4068,0,0.3923,0.3947,0.395,0.397,0.3982,0.3981,0.3992,0.4001,0.4005,0.4015,0.402,0.4031,0.4027,0.4031,0.4039,0.4045,0.4056,0.4043,0.4058,0.4058,0.4055,0.4077,0.408,0.4098,0.407,0.4071,0.4071,0,0.3949,0.3959,0.3981,0.3991,0.3996,0.4006,0.4017,0.4027,0.4036,0.4039,0.4047,0.4047,0.406,0.4053,0.4071,0.4062,0.4068,0.4071,0.4072,0.4074,0.4066,0.408,0.4103,0.4106,0.4075,0.4075,0.4074,0,0.3963,0.3982,0.3998,0.4003,0.4015,0.4022,0.4027,0.4036,0.4043,0.4052,0.4057,0.4068,0.4074,0.4082,0.4086,0.408,0.4104,0.4096,0.4106,0.4106,0.4111,0.4111,0.4136,0.4115,0.4115,0.4115,0.4114,0,0.3985,0.3998,0.4004,0.4014,0.4029,0.4032,0.4046,0.4051,0.4058,0.4069,0.4068,0.4078,0.4082,0.4092,0.4094,0.4109,0.4112,0.4114,0.4114,0.4114,0.4114,0.4118,0.4117,0.4115,0.4115,0.4115,0.4115,0,0.4003,0.4008,0.4025,0.4034,0.4037,0.4047,0.4055,0.4064,0.4068,0.4081,0.4084,0.409,0.4102,0.4106,0.412,0.4122,0.4139,0.4138,0.4136,0.4136,0.4145,0.4144,0.4174,0.4178,0.4154,0.4154,0.4154,0,0.4017,0.4027,0.4038,0.4045,0.405,0.4061,0.4068,0.4071,0.4079,0.4089,0.4097,0.4108,0.4118,0.4137,0.4142,0.4153,0.4153,0.4162,0.4154,0.4153,0.4153,0.4152,0.4153,0.4164,0.4164,0.4165,0.4165,0,0.4041,0.4042,0.4053,0.4063,0.4072,0.4081,0.4089,0.4095,0.4099,0.4107,0.4119,0.4126,0.4141,0.4152,0.4163,0.4168,0.4167,0.4167,0.417,0.417,0.4168,0.4169,0.414,0.4167,0.4166,0.4166,0.4166,0.4166,0.4057,0.4066,0.4075,0.4086,0.4093,0.41,0.4109,0.4114,0.4124,0.4136,0.4137,0.415,0.4158,0.4172,0.4178,0.4188,0.4185,0.4189,0.419,0.4191,0.4191,0.4166,0.419,0.419,0.4189,0.4189,0.4189,0,0.4081,0.4086,0.4096,0.4108,0.4117,0.4115,0.4124,0.4132,0.4143,0.4151,0.416,0.4173,0.4184,0.419,0.4201,0.4208,0.4207,0.421,0.421,0.4211,0.4193,0.419,0.421,0.421,0.421,0.421,0.421,0.421,0.4094,0.4109,0.4111,0.4129,0.4134,0.4147,0.4152,0.4159,0.4165,0.4181,0.419,0.4193,0.42,0.4212,0.4221,0.4223,0.4227,0.423,0.4231,0.4215,0.4212,0.421,0.4207,0.4231,0.4231,0.4248,0.4248,0.4248]}]]